Location: Caltech
(34.1382°N, 118.1253°W)
Time: 12:51:02
(UTC-07:00)

USA 129 - Visible Passes

Search period start: 22 July 2014 00:00
Search period end: 01 August 2014 00:00
Orbit: 241 x 674 km, 97.5° (Epoch: 24 April)

Date Brightness Start Highest point End Pass type
(mag) Time Alt. Az. Time Alt. Az. Time Alt. Az.
22 Jul 3.0 22:05:03 84° SSE 22:05:10 90° ENE 22:09:10 10° NNW visible
23 Jul 4.6 21:20:36 21° E 21:21:26 23° ENE 21:24:37 10° NNE visible
23 Jul 5.5 22:53:38 20° W 22:53:38 20° W 22:56:23 10° NW visible
24 Jul 3.2 22:09:04 81° WSW 22:09:08 81° WSW 22:13:13 10° NNW visible
25 Jul 4.5 21:24:23 24° E 21:25:08 26° ENE 21:28:32 10° NNE visible
25 Jul 5.6 22:57:24 19° W 22:57:24 19° W 23:00:02 10° NW visible
26 Jul 3.3 22:12:36 74° W 22:12:36 74° W 22:16:44 10° NNW visible
27 Jul 4.4 21:27:41 27° E 21:28:19 28° ENE 21:31:53 10° NNE visible
27 Jul 5.7 23:00:41 18° W 23:00:41 18° W 23:03:11 10° NW visible
28 Jul 3.5 22:15:39 68° W 22:15:39 68° W 22:19:43 10° NNW visible
29 Jul 4.3 21:30:29 29° E 21:31:00 30° ENE 21:34:41 10° N visible
29 Jul 5.8 23:03:28 17° W 23:03:28 17° W 23:05:49 10° NW visible
30 Jul 3.7 22:18:12 64° W 22:18:12 64° W 22:22:11 10° NNW visible
31 Jul 4.3 21:32:48 32° E 21:33:11 32° ENE 21:36:57 10° N visible
31 Jul 5.9 23:05:46 16° W 23:05:46 16° W 23:07:56 10° NW visible
